Hourly Data Report for September 10, 2017

All times are specified in Local Standard Time (LST). Add 1 hour to adjust for Daylight Saving Time where and when it is observed.

RESOLUTE BAY A
NUNAVUT

74°43'01.000" N
94°58'10.000" W
67.70 m
2403498
71924
YRB

Download Data

Hourly Data (September 2017)
Hourly Data Report for September 10, 2017
Temp Definition
°C
Dew Point Temp Definition
°C
Rel Hum Definition
%
Wind Dir Definition
10's deg

Wind Spd Definition
km/h
Visibility Definition
km
Stn Press Definition
kPa
Hmdx Definition


Wind Chill Definition


Weather Definition


TIME
00:00 Legend Double Dagger -2.9 -5.7 81 28 29 16.1 99.46   -10 Cloudy
01:00 Legend Double Dagger -2.5 -3.7 92 28 30 16.1 99.43   -10 Snow
02:00 Legend Double Dagger -2.2 -3.0 94 27 26 12.9 99.39   -9 Snow
03:00 Legend Double Dagger -2.0 -2.7 95 27 31 9.7 99.36   -9 Snow
04:00 Legend Double Dagger -1.6 -2.5 94 27 30 9.7 99.37   -9 Snow
05:00 Legend Double Dagger -1.4 -2.1 95 27 31 4.8 99.35   -8 Freezing Drizzle,Fog
06:00 Legend Double Dagger -1.3 -2.1 94 27 35 12.9 99.33   -9 Cloudy
07:00 Legend Double Dagger -1.2 -2.0 94 28 32 16.1 99.30   -8 LegendNANA
08:00 Legend Double Dagger -1.2 -1.8 95 27 27 16.1 99.30   -8 Snow
09:00 Legend Double Dagger -1.2 -1.7 96 26 26 9.7 99.30   -8 Snow
10:00 Legend Double Dagger -1.3 -1.9 96 27 32 16.1 99.31   -8 Snow
11:00 Legend Double Dagger -1.0 -2.2 92 26 23 24.1 99.32   -7 Snow
12:00 Legend Double Dagger -1.2 -2.5 91 24 25 6.4 99.34   -7 Snow
13:00 Legend Double Dagger -1.2 -2.4 91 22 13 12.9 99.30   -5 Snow
14:00 Legend Double Dagger -1.2 -2.0 94 19 16 9.7 99.28   -6 Snow
15:00 Legend Double Dagger -1.2 -1.8 96 20 26 8.1 99.25   -8 Snow
16:00 Legend Double Dagger -1.1 -1.6 96 22 25 9.7 99.22   -7 Snow
17:00 Legend Double Dagger -1.0 -1.5 96 23 17 12.9 99.24   -6 Snow
18:00 Legend Double Dagger -1.1 -1.6 96 27 9 24.1 99.27   -4 Snow
19:00 Legend Double Dagger -1.0 -1.5 97 29 12 24.1 99.29   -5 Snow
20:00 Legend Double Dagger -1.2 -1.6 97 31 17 19.3 99.34   -6 Snow
21:00 Legend Double Dagger -1.4 -1.8 97 32 15 1.2 99.39   -6 Snow,Fog
22:00 Legend Double Dagger -1.5 -1.9 97 31 17 0.6 99.43   -7 Snow,Freezing Fog
23:00 Legend Double Dagger -1.9 -2.3 97 32 17 0.6 99.48   -7 Snow,Freezing Fog

Notes on Data Quality.

Legend

  • E = Estimated
  • M = Missing
  • NA = Not Available
  • ‡ = Partner data that is not subject to review by the National Climate Archives
Date modified: